Zurück zum Katalog

METEOR 2-17 DEB

AktivPO
NORAD 35365·DEBRIS·🇷🇺 Russia

Gestartet Jan 30, 1988 von Plesetsk Cosmodrome

Loading…

Nächste Überflüge (nächste 24 Stunden)

TLE

VeraltetSource: Space-Track

Epoche: Sep 1, 2026, 05:40 UTC

1 35365U 88005Z   26244.23636844  .00002530  00000-0  16680-2 0  9990
2 35365  82.5016 194.2086 0010448  45.2064  22.4864 14.01377145630754

Verfolge METEOR 2-17 DEB in Echtzeit mit AllMySat

Download on the App Store